* Astronomy

Members Login
Username 
 
Password 
    Remember Me  
Post Info TOPIC: Asteroid 2012 UV136


L

Posts: 131433
Date:
RE: Asteroid 2012 UV136
Permalink  
 


The 21 - 47 metre wide asteroid 2012 UV136 will make a close pass (49.7 LD, 0.1277 AU) travelling at 3.46 km/second, to the Earth-Moon system on the 11th September 2015 @ 18:46 UT ±00:01. 

See more

The Lunar Distance (LD), the distance between Earth and the Moon, equals 384,401 km, (or 0.00256 AU).



__________________


L

Posts: 131433
Date:
Permalink  
 

The 21 - 47 metre wide asteroid 2012 UV136 will make a close pass (38.8 lunar distances, 0.0998 AU) travelling at 2.91 km/second, to the Earth-Moon system on the 6th October 2014 @ 16:23 UT ±00:01. 

See more

The Lunar Distance (LD), the distance between Earth and the Moon, equals 384,401 km, (or 0.00256 AU).



__________________


L

Posts: 131433
Date:
Permalink  
 

The 21 - 47 metre wide asteroid 2012 UV136 will make a close pass (18.6 lunar distances, 0.0477 AU), travelling at 2.66 km/second, to the Earth-Moon system on the 8th November, 2013 @ 12:14 UT ±00:01. 

See more

The Lunar Distance (LD), the distance between Earth and the Moon, equals 384,401 km, (or 0.00256 AU).



__________________


L

Posts: 131433
Date:
Permalink  
 

Orbital elements:
2012 UV136                                               Earth MOID = 0.0119 AU
Epoch 2012 Sept. 30.0 TT = JDT 2456200.5                MPC
M 244.69348              (2000.0)            P               Q
n   0.97180358     Peri.  287.87807     -0.76433162     -0.64445975
a   1.0094475      Node   212.00692     +0.60600254     -0.70643602
e   0.1402997      Incl.    2.34125     +0.22035903     -0.29260858
P   1.01           H   25.2           G   0.15           U   8

MPEC 2012 - U87

The 24 - 55 metre wide asteroid 2012 UV136 will make a close pass (5.8 lunar distances, 0.1899 AU), travelling at 4.24 km/second, to the Earth-Moon system on the 10th November, 2012 @ 07:13 UT ±10:51. 

See more

The Lunar Distance (LD), the distance between Earth and the Moon, equals 384,401 km, (or 0.00256 AU).



__________________
Page 1 of 1  sorted by
 
Quick Reply

Please log in to post quick replies.



Create your own FREE Forum
Report Abuse
Powered by ActiveBoard